Temperature
17 17 17 17 17 17 17 16 16 16 16 16 16 16 16 16 16 16 15 15 15 15 15 15 15 15 15 16 16 16 16 16 16 17 16 16 15 15 15 15 15 15 15
17 17 17 17 17 17 17 16 16 16 16 16 16 16 16 16 16 16 15 15 15 15 15 15 15 15 15 15 15 15 15 15 15 15 16 15 15 15 15 15 15 15 15
17 17 17 17 17 17 16 16 16 16 16 16 16 16 16 16 16 15 15 15 15 15 15 15 15 15 15 15 15 15 15 15 15 15 15 15 14 14 14 14 14 14 14
17 17 17 17 17 17 17 16 16 16 16 16 16 16 16 16 15 15 15 15 15 15 14 14 14 14 14 14 14 14 14 14 14 14 14 14 14 13 13 13 13 13 13
16 16 16 16 16 16 16 16 16 16 16 16 16 15 15 15 15 15 15 14 14 14 14 14 14 14 14 14 14 14 14 14 14 13 13 13 13 12 12 12 12 12 12
16 16 16 16 16 16 16 16 16 15 15 15 15 15 15 15 15 15 14 14 14 14 14 13 13 13 13 13 13 13 13 13 13 12 12 12 11 11 11 11 11 11 11
16 16 16 16 16 16 16 15 15 15 15 15 15 14 14 14 14 14 14 14 13 13 13 12 12 12 12 12 12 12 12 12 12 11 11 10 10 10 10 10 10 10 10
16 16 16 16 15 15 15 15 15 15 14 14 14 14 14 13 13 13 13 13 13 12 12 12 11 11 11 11 11 11 11 11 11 10 10 10 9 9 9 9 9 9 9
15 15 15 15 15 15 15 15 14 14 14 13 13 13 13 13 12 12 12 12 12 11 11 11 10 10 10 10 10 10 9 9 9 9 9 9 8 8 8 8 8 9 9
15 15 15 15 15 15 14 14 14 13 13 13 12 12 12 12 11 11 11 11 11 10 10 9 9 9 9 9 9 8 8 8 8 7 7 7 7 7 7 7 7 7 8
15 14 14 14 14 14 13 13 13 13 12 12 11 11 11 11 11 10 10 10 9 9 9 8 8 8 8 8 8 8 8 7 7 7 7 7 6 6 6 6 6 6 6
14 14 13 13 13 13 13 12 12 12 11 11 11 10 10 10 10 9 9 9 9 8 8 8 7 7 7 7 7 7 7 6 6 6 6 6 6 5 5 5 5 5 5
13 13 13 13 12 12 12 11 11 11 11 10 10 9 9 8 8 8 8 8 8 8 7 7 7 7 6 6 6 6 6 6 6 6 6 5 5 4 4 4 4 4 4
13 12 12 11 11 11 11 10 10 10 10 9 9 8 8 8 7 7 7 7 7 7 6 6 6 6 5 5 5 5 5 5 5 5 5 5 4 4 4 4 4 4 5
12 11 11 11 10 10 10 9 9 9 9 9 8 8 8 7 7 7 7 6 6 6 6 6 6 6 5 5 5 4 4 4 4 4 4 4 4 4 4 4 3 4 4
11 11 10 10 10 9 9 9 8 8 8 8 8 7 7 7 7 6 6 6 6 6 6 6 6 5 5 5 5 5 4 4 4 4 4 4 4 3 3 3 3 3 3
11 10 10 9 9 8 8 8 7 7 7 7 7 7 7 6 6 6 6 5 5 5 6 5 5 5 5 5 4 4 4 3 3 3 3 3 3 3 3 3 3 3 3
10 10 9 9 8 8 8 7 7 6 6 5 6 6 6 5 5 5 5 5 5 5 5 5 5 4 4 4 4 4 3 3 3 3 3 3 2 3 3 3 3 2 2
9 9 8 8 8 8 7 7 7 6 6 5 5 5 5 5 5 4 5 5 5 5 5 5 4 4 4 3 3 3 3 3 2 2 2 2 2 2 2 2 2 2 2
8 8 8 8 7 7 7 7 7 6 6 6 5 5 5 5 5 5 4 5 5 5 4 4 4 3 3 3 2 2 2 2 2 2 2 2 2 2 2 2 2 2 2
8 8 8 7 7 7 7 7 7 6 6 6 5 5 5 5 5 5 5 4 4 4 4 4 3 3 3 2 2 2 2 2 2 1 1 1 1 1 1 1 1 1 1
8 7 8 7 7 7 7 7 7 6 6 6 5 5 5 5 5 5 4 4 4 3 3 3 3 3 2 2 2 2 2 1 1 1 1 1 1 1 1 1 1 1 1
8 8 7 7 7 7 7 7 7 6 6 6 5 5 5 5 5 4 4 4 3 3 3 3 2 2 2 1 1 1 1 1 0 0 -0 0 0 1 1 1 1 1 1
8 8 8 7 7 7 7 7 7 6 6 6 6 5 5 4 4 4 4 4 3 3 3 2 2 2 1 1 1 1 1 1 1 0 -0 -0 -0 0 0 0 1 1 1
8 8 8 7 7 7 7 7 7 6 6 6 5 5 5 5 4 4 4 3 3 3 2 2 2 2 1 1 1 1 1 1 1 0 0 -0 -0 -0 -0 0 0 0 1
8 8 8 7 7 7 7 7 6 6 6 6 5 5 5 5 4 4 4 3 3 3 2 2 2 1 1 1 1 1 1 1 1 0 0 -0 -0 -0 -0 -0 0 0 1
Wind_Speed
9 10 9 10 9 9 9 9 8 7 8 9 9 9 9 9 9 9 8 7 8 7 6 6 6 5 4 4 5 5 5 6 6 6 3 1 1 4 2 3 4 4 3
9 9 9 9 9 9 8 8 7 7 8 8 8 9 9 9 9 9 8 8 7 7 6 6 6 5 4 5 4 5 5 4 6 7 4 3 2 2 3 4 3 4 2
8 8 8 8 9 8 7 7 7 7 7 7 8 8 8 7 7 7 7 6 6 5 5 5 4 3 3 3 4 4 4 4 4 5 5 2 2 2 3 3 3 3 4
7 8 8 8 8 7 7 6 6 6 6 6 6 7 6 6 6 6 5 5 4 3 2 2 1 1 1 2 3 3 4 4 3 4 4 2 2 2 3 4 4 3 4
7 7 7 7 6 6 6 6 6 6 6 6 6 5 5 5 5 6 5 5 5 4 3 3 4 7 9 5 3 2 2 2 2 2 2 2 2 3 3 4 4 4 3
7 7 7 7 7 6 6 6 6 6 5 6 5 5 5 4 7 7 6 6 6 5 5 5 6 8 10 12 13 13 10 4 2 2 2 3 4 5 5 5 5 5 4
7 7 7 7 7 6 7 7 6 6 7 7 7 7 6 7 10 11 9 7 7 6 6 6 6 6 7 7 10 11 13 13 10 5 5 5 4 5 6 5 5 6 5
8 7 7 8 8 8 8 8 8 7 8 8 8 8 8 8 11 12 12 10 9 8 8 7 7 7 7 6 8 9 10 10 10 8 7 7 7 7 6 5 5 4 4
8 7 7 8 9 9 9 9 8 9 9 9 8 9 9 8 10 10 10 9 9 10 9 9 8 8 9 6 8 8 8 8 13 14 12 9 10 10 10 6 6 6 5
8 8 8 8 9 10 10 10 9 10 10 10 10 9 9 9 9 9 8 8 10 10 9 10 14 12 11 9 7 7 7 6 5 5 5 4 5 6 6 7 7 7 7
8 9 9 9 10 11 11 10 11 11 11 11 12 10 10 10 11 10 7 7 8 9 9 8 9 13 13 13 10 8 6 3 3 3 3 3 4 4 6 8 8 7 7
10 11 11 10 10 10 12 11 11 12 13 12 12 11 9 9 10 11 12 11 9 10 9 9 10 13 14 12 10 6 3 3 3 3 4 5 5 6 6 7 7 7 6
11 11 11 11 11 11 11 12 10 10 10 10 10 10 9 9 10 14 15 14 13 11 11 13 11 10 10 10 8 3 3 4 5 5 5 5 5 6 6 5 5 6 7
13 12 11 11 11 11 9 8 9 9 9 9 9 10 10 9 9 9 10 12 13 13 12 11 9 7 6 6 4 3 5 6 6 5 5 5 5 5 6 6 7 7 7
13 12 12 11 12 12 11 10 9 8 7 8 9 9 10 9 8 8 7 8 8 8 7 6 5 5 5 5 5 5 5 5 5 6 5 6 6 6 6 7 7 8 8
13 12 11 11 11 11 13 13 19 15 18 17 14 11 12 13 13 14 14 12 9 2 3 6 6 5 5 5 4 4 5 6 6 6 6 7 7 7 7 7 7 8 8
13 12 11 11 11 11 12 13 13 14 19 19 17 17 15 14 14 13 11 9 3 2 4 6 6 5 5 4 4 5 5 6 5 6 6 6 7 7 7 8 8 8 9
14 13 12 10 10 11 11 12 12 13 13 11 12 14 13 13 11 9 7 6 5 4 6 6 5 5 4 5 5 5 5 5 6 6 6 7 7 7 8 8 8 9 10
13 11 10 10 10 10 10 11 11 13 12 12 11 10 9 10 8 4 3 3 6 5 5 5 5 5 5 5 5 5 5 5 6 7 6 7 7 8 8 9 9 9 9
12 14 12 11 11 11 10 11 11 11 11 10 9 9 8 7 7 5 4 5 5 5 5 5 5 5 4 4 4 5 5 5 6 6 7 7 7 8 8 9 9 10 10
11 12 12 11 10 10 10 10 9 9 9 9 8 7 3 5 6 5 5 5 4 4 4 4 3 3 4 4 4 5 6 6 6 7 7 7 8 8 8 9 9 9 10
11 10 10 10 10 9 9 9 9 9 9 9 9 7 1 3 5 5 5 4 4 4 4 3 3 4 5 5 5 5 6 6 7 7 8 8 8 8 9 9 9 10 10
10 11 10 10 10 9 9 8 8 8 8 8 8 7 5 4 5 4 4 4 3 3 3 3 3 4 4 4 5 5 6 7 8 8 9 9 9 9 9 9 11 11 11
11 11 11 10 10 9 8 8 8 8 8 7 6 6 5 4 4 4 3 3 3 3 2 2 3 3 4 4 4 5 6 8 10 10 10 10 10 9 9 10 10 11 11
9 9 9 9 9 8 8 7 7 7 7 6 5 5 4 4 4 3 2 2 2 1 1 1 1 2 3 4 5 6 6 7 8 10 11 10 10 10 10 11 11 12 11
8 8 8 7 7 7 6 6 7 7 6 6 5 4 4 3 3 2 2 1 0 0 1 1 1 2 3 3 4 4 4 6 9 11 12 11 10 9 11 11 13 12 12
Wind_Direction
192 196 195 193 193 192 197 199 202 205 201 200 199 200 202 202 201 205 214 199 206 206 212 212 222 249 248 248 247 251 255 259 265 268 256 247 271 293 311 281 262 249 213
190 194 195 190 190 191 195 196 198 198 199 199 199 201 203 202 201 202 206 200 204 208 211 214 222 222 231 259 262 258 258 268 270 277 279 276 261 284 294 286 285 273 283
184 188 186 187 187 188 189 190 193 192 195 196 195 198 198 194 193 194 194 191 195 202 205 208 217 222 232 249 257 263 262 256 265 274 276 297 287 326 311 294 294 321 299
178 182 183 189 187 183 184 185 186 185 184 185 184 183 179 176 174 172 170 173 176 181 184 183 194 215 253 269 261 272 276 277 271 270 278 288 300 330 321 318 314 327 318
171 171 172 175 170 169 169 170 170 167 166 162 161 161 160 162 163 158 158 158 151 140 121 103 84 71 55 39 12 343 306 288 288 284 294 305 345 350 344 327 319 317 318
162 159 155 153 151 152 150 148 149 148 145 140 143 141 140 137 109 112 133 136 130 126 118 109 99 87 82 73 65 55 40 29 14 6 23 34 25 8 353 337 330 319 315
158 153 146 142 140 137 138 133 132 130 126 121 118 117 112 99 97 101 102 113 111 109 106 101 95 88 90 93 85 79 63 53 45 44 59 42 28 12 349 344 352 338 332
156 150 143 138 134 130 127 121 116 112 108 102 99 101 100 96 99 102 103 105 99 93 91 93 94 83 71 79 86 76 66 53 49 54 58 44 34 10 348 333 324 305 283
146 142 140 137 133 129 124 120 115 110 104 99 98 98 99 95 92 102 109 110 101 91 81 77 88 89 60 60 86 85 81 79 77 76 72 69 57 38 11 348 343 325 322
142 138 132 130 128 124 120 115 111 107 102 97 90 88 92 91 84 92 106 111 106 99 90 80 70 73 61 52 82 85 81 70 64 74 78 75 51 48 30 10 351 335 327
124 122 118 117 119 118 114 111 110 107 103 98 93 85 82 82 80 75 79 111 115 109 100 88 77 70 65 57 63 71 61 36 60 53 49 38 31 23 17 16 3 344 335
117 113 111 111 112 113 113 112 112 113 108 103 98 91 82 78 77 75 69 72 88 102 99 97 94 85 77 67 68 54 355 319 43 36 30 23 14 10 7 358 352 339 324
113 110 108 106 104 107 112 115 114 114 113 111 108 104 99 96 88 80 78 76 76 92 95 97 104 113 113 89 75 22 359 37 37 31 24 17 7 1 341 336 331 320 297
113 110 108 105 102 97 95 100 106 110 113 114 114 113 112 110 110 111 109 105 106 106 110 115 115 99 104 107 114 64 51 41 22 23 15 6 354 348 345 346 339 333 324
113 111 108 104 101 92 81 69 82 75 84 107 115 118 120 115 93 76 102 109 109 111 124 125 117 106 89 77 69 55 42 35 24 16 6 358 353 350 348 347 339 330 330
116 113 112 111 108 105 100 83 60 67 63 61 64 86 87 92 96 86 82 83 88 123 129 105 95 86 77 68 59 53 42 31 16 7 4 359 353 347 344 343 340 337 333
115 115 115 116 116 115 114 112 105 81 67 63 66 78 93 102 101 101 103 107 124 240 106 93 87 79 69 58 46 38 32 29 7 0 1 356 348 343 341 339 338 338 334
114 114 117 119 120 121 121 121 120 118 111 97 80 81 95 103 107 117 142 154 124 109 89 88 83 75 63 47 37 28 19 14 7 357 355 351 346 340 339 338 336 341 331
117 119 117 117 119 119 121 121 119 117 116 116 116 108 109 119 123 147 213 108 91 88 84 80 72 64 54 43 31 17 9 6 4 346 352 349 343 339 339 336 332 336 321
114 115 119 122 121 121 121 121 122 123 123 124 125 129 143 150 127 122 109 87 87 83 78 75 66 55 47 33 21 8 360 1 357 348 351 344 341 337 335 332 332 331 328
121 121 123 124 123 124 124 125 127 128 126 125 118 101 53 119 109 105 100 91 81 77 70 65 65 58 46 29 17 3 356 0 358 350 345 340 338 336 331 329 330 329 330
125 129 127 122 122 124 126 128 128 125 125 123 123 126 112 119 110 106 99 92 85 79 71 54 48 49 34 20 9 359 354 357 355 348 340 334 331 329 329 330 332 331 330
127 126 123 122 123 127 133 131 132 133 133 133 133 134 134 117 111 105 99 93 85 77 70 56 38 38 32 19 10 1 354 355 346 337 329 327 327 327 328 329 329 328 329
130 131 130 133 138 142 137 138 139 137 136 136 135 133 130 126 117 110 106 98 91 81 64 47 37 36 21 359 350 2 14 355 335 326 324 318 318 322 324 324 324 328 327
134 135 136 140 143 143 143 144 141 140 140 140 140 139 137 137 134 131 122 112 105 76 49 16 4 4 355 349 352 3 10 345 326 320 314 309 314 318 321 322 323 323 324
137 138 140 143 145 146 149 152 152 151 150 149 147 147 150 152 147 142 144 140 132 89 320 324 337 328 319 324 358 360 339 319 312 309 304 303 311 318 324 319 320 320 322
Height
1512 1514 1517 1519 1521 1524 1526 1529 1532 1534 1536 1539 1541 1543 1545 1547 1549 1551 1554 1555 1557 1558 1560 1561 1562 1563 1564 1565 1565 1566 1566 1566 1566 1566 1565 1565 1563 1563 1563 1563 1563 1562 1561
1510 1512 1514 1517 1519 1521 1524 1526 1529 1531 1533 1536 1538 1540 1542 1544 1546 1548 1551 1552 1554 1556 1557 1558 1559 1560 1561 1561 1562 1562 1563 1563 1563 1562 1562 1562 1561 1560 1559 1559 1559 1559 1558
1508 1510 1512 1514 1516 1519 1521 1523 1526 1528 1530 1533 1535 1537 1540 1542 1544 1546 1548 1549 1551 1553 1554 1555 1556 1557 1558 1559 1559 1559 1560 1560 1559 1559 1559 1558 1558 1557 1556 1556 1556 1555 1555
1506 1508 1510 1512 1514 1517 1519 1521 1523 1525 1528 1530 1532 1534 1537 1539 1541 1543 1544 1546 1548 1550 1551 1552 1553 1554 1555 1555 1556 1556 1556 1556 1556 1556 1556 1556 1555 1554 1553 1553 1552 1551 1551
1504 1506 1508 1510 1513 1515 1517 1519 1521 1523 1525 1527 1530 1532 1534 1536 1538 1539 1541 1543 1545 1547 1549 1550 1550 1551 1552 1553 1553 1553 1553 1553 1553 1553 1553 1553 1552 1551 1550 1549 1549 1548 1546
1503 1505 1507 1509 1511 1513 1515 1517 1519 1521 1523 1525 1527 1529 1531 1533 1535 1537 1539 1541 1542 1544 1546 1547 1548 1549 1549 1550 1550 1550 1551 1550 1550 1551 1550 1550 1549 1548 1546 1546 1546 1545 1544
1502 1504 1506 1508 1510 1511 1514 1515 1517 1519 1521 1523 1525 1527 1529 1531 1533 1535 1537 1539 1540 1542 1543 1545 1546 1547 1548 1548 1548 1548 1548 1548 1548 1548 1548 1547 1546 1545 1544 1544 1543 1542 1540
1501 1503 1505 1507 1509 1510 1512 1514 1516 1518 1520 1522 1524 1526 1527 1529 1531 1534 1536 1537 1539 1540 1541 1542 1544 1545 1546 1546 1547 1547 1547 1546 1546 1546 1546 1545 1544 1543 1542 1542 1540 1539 1538
1501 1502 1504 1506 1508 1509 1511 1513 1515 1517 1519 1521 1523 1525 1527 1529 1531 1533 1535 1536 1537 1538 1540 1541 1542 1543 1544 1545 1546 1546 1545 1545 1545 1544 1544 1543 1542 1541 1540 1540 1539 1538 1537
1499 1501 1503 1505 1507 1508 1510 1513 1515 1517 1519 1521 1523 1526 1527 1529 1531 1532 1534 1536 1537 1538 1539 1541 1542 1543 1544 1545 1545 1545 1545 1545 1545 1545 1544 1543 1542 1540 1539 1538 1537 1537 1535
1499 1501 1502 1504 1506 1508 1510 1513 1515 1518 1520 1522 1524 1526 1528 1530 1531 1533 1535 1537 1538 1539 1540 1541 1542 1543 1544 1545 1545 1545 1545 1545 1546 1546 1545 1544 1543 1541 1539 1537 1535 1534 1533
1498 1500 1502 1505 1507 1509 1511 1513 1516 1519 1520 1523 1525 1527 1529 1531 1533 1535 1536 1538 1539 1540 1541 1542 1543 1544 1545 1546 1546 1546 1546 1546 1547 1546 1545 1544 1543 1541 1538 1536 1533 1531 1529
1498 1500 1503 1505 1507 1510 1512 1515 1517 1520 1522 1524 1527 1529 1531 1533 1535 1537 1538 1539 1541 1541 1542 1544 1545 1545 1546 1547 1547 1546 1547 1547 1547 1546 1545 1544 1542 1539 1537 1535 1533 1530 1527
1498 1501 1503 1506 1508 1511 1514 1517 1520 1522 1524 1526 1528 1530 1533 1535 1537 1539 1540 1541 1543 1544 1544 1545 1546 1547 1548 1548 1548 1549 1548 1547 1546 1546 1545 1543 1541 1539 1537 1535 1532 1530 1528
1499 1502 1504 1507 1510 1512 1515 1518 1521 1524 1526 1529 1531 1533 1535 1537 1539 1541 1543 1544 1545 1546 1547 1549 1550 1551 1551 1551 1550 1550 1549 1548 1547 1546 1544 1543 1541 1539 1537 1534 1531 1529 1527
1500 1504 1507 1510 1513 1515 1517 1520 1524 1527 1529 1532 1534 1535 1537 1539 1541 1542 1544 1545 1546 1548 1550 1551 1552 1552 1552 1552 1552 1551 1550 1549 1547 1546 1544 1542 1540 1538 1536 1533 1531 1528 1525
1502 1506 1509 1512 1516 1519 1521 1523 1526 1530 1533 1535 1537 1539 1540 1542 1544 1545 1547 1548 1549 1551 1553 1553 1553 1553 1554 1553 1553 1552 1551 1549 1547 1546 1544 1542 1540 1537 1535 1532 1530 1527 1524
1506 1509 1512 1516 1519 1522 1525 1528 1530 1533 1536 1538 1541 1543 1544 1545 1547 1548 1550 1551 1553 1554 1554 1554 1554 1554 1554 1554 1553 1552 1551 1549 1547 1545 1544 1541 1539 1537 1534 1532 1529 1526 1523
1509 1512 1516 1519 1523 1526 1529 1532 1535 1537 1539 1541 1543 1546 1547 1549 1550 1551 1552 1555 1555 1556 1556 1556 1556 1555 1555 1554 1553 1551 1550 1549 1546 1545 1543 1540 1538 1536 1533 1531 1528 1525 1521
1513 1516 1519 1523 1526 1529 1533 1535 1538 1540 1543 1546 1547 1549 1550 1552 1554 1554 1555 1556 1556 1556 1556 1556 1556 1555 1554 1553 1552 1551 1550 1548 1546 1544 1542 1540 1537 1535 1532 1530 1527 1524 1521
1517 1520 1523 1527 1530 1533 1536 1539 1541 1544 1546 1548 1550 1551 1553 1555 1556 1556 1557 1557 1557 1557 1557 1557 1556 1555 1554 1553 1552 1551 1549 1548 1545 1543 1541 1539 1537 1534 1531 1529 1526 1523 1519
1521 1524 1527 1530 1533 1536 1539 1542 1544 1546 1548 1550 1551 1552 1553 1556 1557 1557 1558 1557 1557 1557 1557 1556 1556 1555 1554 1553 1551 1550 1548 1547 1544 1542 1540 1538 1535 1533 1530 1527 1524 1521 1518
1526 1528 1531 1533 1536 1538 1541 1544 1546 1548 1550 1552 1553 1554 1555 1556 1557 1557 1558 1557 1557 1557 1556 1556 1555 1555 1553 1551 1550 1548 1547 1545 1542 1540 1538 1536 1534 1532 1529 1526 1523 1520 1517
1529 1532 1534 1536 1539 1542 1544 1546 1548 1549 1551 1553 1554 1555 1556 1556 1557 1557 1557 1557 1557 1556 1556 1555 1554 1553 1551 1550 1549 1548 1545 1542 1540 1538 1535 1533 1532 1530 1527 1525 1522 1519 1515
1532 1534 1536 1539 1541 1543 1545 1547 1549 1550 1552 1553 1554 1555 1556 1556 1557 1557 1557 1556 1556 1555 1555 1554 1553 1552 1550 1549 1547 1545 1542 1540 1537 1535 1532 1531 1530 1528 1526 1523 1520 1517 1514
1534 1536 1538 1540 1542 1544 1546 1547 1549 1551 1552 1553 1554 1555 1555 1556 1556 1556 1556 1556 1555 1555 1554 1553 1552 1550 1549 1548 1545 1543 1540 1538 1535 1533 1531 1529 1528 1526 1523 1521 1518 1515 1512